Retour au catalogue

NOAA 16 DEB

ActifSSO
NORAD 42422·DEBRIS·🇺🇸 United States

Lancé Sep 21, 2000 depuis Vandenberg Space Force Base

Loading…

Prochains Passages (prochaines 24 heures)

TLE

FraisSource: Space-Track

Époque: Sep 14, 2026, 03:42 UTC

1 42422U 00055TS  26257.15431997  .00003263  00000-0  11480-2 0  9995
2 42422  98.7842   5.3803 0010688  41.8490 318.3510 14.35559490539779

Suivez NOAA 16 DEB en temps réel avec AllMySat

Download on the App Store